QPF
0.00 0.00 0.00 0.00 0.00 0.00 0.00 0.00 0.00 0.00 0.00 0.00 0.00 0.01 0.01 0.01 0.00 0.01 0.03 0.02 0.02 0.02 0.02 0.02 0.02 0.02 0.03 0.03 0.02 0.03 0.05 0.05 0.03 0.04 0.03 0.02 0.02 0.03 0.04 0.02 0.01 0.02 0.04 0.03
0.00 0.00 0.00 0.00 0.00 0.00 0.00 0.00 0.00 0.00 0.00 0.00 0.00 0.01 0.01 0.00 0.00 0.01 0.02 0.03 0.02 0.02 0.02 0.02 0.02 0.03 0.02 0.02 0.01 0.02 0.03 0.03 0.02 0.02 0.02 0.02 0.02 0.02 0.02 0.02 0.02 0.02 0.03 0.02
0.00 0.00 0.00 0.00 0.00 0.00 0.00 0.00 0.00 0.00 0.00 0.00 0.00 0.01 0.01 0.01 0.00 0.01 0.01 0.02 0.02 0.01 0.01 0.02 0.02 0.03 0.02 0.02 0.02 0.03 0.03 0.03 0.02 0.03 0.02 0.02 0.02 0.02 0.02 0.02 0.03 0.02 0.02 0.02
0.00 0.00 0.00 0.00 0.00 0.00 0.00 0.00 0.00 0.00 0.00 0.00 0.00 0.01 0.01 0.00 0.00 0.01 0.01 0.01 0.01 0.01 0.01 0.02 0.03 0.03 0.02 0.02 0.03 0.05 0.04 0.03 0.02 0.03 0.03 0.03 0.03 0.02 0.02 0.02 0.02 0.02 0.03 0.02
0.00 0.00 0.00 0.00 0.00 0.00 0.00 0.00 0.00 0.00 0.00 0.00 0.00 0.00 0.00 0.00 0.01 0.01 0.01 0.01 0.01 0.02 0.03 0.04 0.04 0.03 0.02 0.03 0.04 0.04 0.04 0.03 0.03 0.04 0.04 0.03 0.02 0.02 0.01 0.01 0.02 0.02 0.02 0.02
0.00 0.00 0.00 0.00 0.00 0.00 0.00 0.00 0.00 0.00 0.00 0.00 0.00 0.00 0.00 0.00 0.01 0.02 0.03 0.01 0.01 0.01 0.02 0.02 0.03 0.02 0.04 0.04 0.03 0.03 0.03 0.03 0.04 0.05 0.04 0.03 0.01 0.01 0.00 0.01 0.02 0.02 0.02 0.02
0.00 0.00 0.00 0.00 0.00 0.00 0.00 0.00 0.00 0.00 0.00 0.00 0.00 0.00 0.00 0.01 0.01 0.01 0.02 0.01 0.01 0.01 0.01 0.01 0.02 0.06 0.10 0.12 0.09 0.05 0.04 0.04 0.05 0.07 0.06 0.03 0.02 0.02 0.01 0.02 0.02 0.02 0.02 0.03
0.00 0.00 0.00 0.00 0.00 0.00 0.00 0.00 0.00 0.00 0.00 0.00 0.00 0.01 0.01 0.01 0.01 0.01 0.01 0.01 0.00 0.01 0.01 0.02 0.03 0.03 0.04 0.08 0.09 0.08 0.10 0.09 0.07 0.07 0.06 0.04 0.03 0.03 0.01 0.01 0.01 0.01 0.01 0.02
0.00 0.00 0.00 0.00 0.00 0.00 0.00 0.00 0.00 0.00 0.00 0.00 0.00 0.01 0.01 0.01 0.01 0.00 0.00 0.00 0.00 0.00 0.01 0.02 0.01 0.02 0.02 0.03 0.04 0.06 0.08 0.08 0.08 0.07 0.05 0.04 0.04 0.03 0.02 0.01 0.01 0.01 0.02 0.02
0.00 0.00 0.00 0.00 0.00 0.00 0.00 0.00 0.00 0.00 0.00 0.00 0.00 0.00 0.00 0.00 0.00 0.00 0.00 0.00 0.00 0.00 0.02 0.02 0.02 0.02 0.02 0.02 0.03 0.03 0.04 0.07 0.10 0.10 0.07 0.04 0.03 0.03 0.03 0.02 0.01 0.01 0.01 0.02
0.00 0.00 0.00 0.00 0.00 0.00 0.00 0.00 0.00 0.00 0.00 0.00 0.00 0.00 0.00 0.00 0.00 0.00 0.00 0.00 0.00 0.01 0.02 0.04 0.06 0.03 0.02 0.02 0.03 0.03 0.03 0.04 0.07 0.10 0.09 0.06 0.03 0.03 0.02 0.02 0.02 0.02 0.02 0.02
0.00 0.00 0.00 0.00 0.00 0.00 0.00 0.00 0.00 0.00 0.00 0.00 0.00 0.00 0.00 0.00 0.00 0.00 0.00 0.00 0.00 0.00 0.02 0.07 0.10 0.07 0.04 0.04 0.03 0.04 0.05 0.04 0.04 0.05 0.05 0.05 0.03 0.02 0.02 0.02 0.02 0.02 0.02 0.02
0.00 0.00 0.00 0.00 0.00 0.00 0.00 0.00 0.00 0.00 0.00 0.00 0.00 0.00 0.00 0.00 0.00 0.00 0.01 0.01 0.01 0.01 0.02 0.03 0.03 0.03 0.03 0.03 0.03 0.03 0.04 0.03 0.02 0.02 0.03 0.04 0.03 0.02 0.01 0.02 0.02 0.02 0.02 0.03
0.00 0.00 0.00 0.00 0.00 0.00 0.00 0.00 0.00 0.00 0.00 0.00 0.00 0.00 0.00 0.00 0.00 0.01 0.02 0.01 0.02 0.01 0.01 0.01 0.01 0.01 0.01 0.02 0.02 0.03 0.04 0.03 0.02 0.01 0.02 0.02 0.03 0.03 0.02 0.02 0.02 0.02 0.03 0.04
0.00 0.00 0.00 0.00 0.00 0.00 0.00 0.00 0.00 0.00 0.00 0.00 0.00 0.00 0.00 0.00 0.00 0.01 0.01 0.01 0.01 0.01 0.01 0.01 0.01 0.01 0.01 0.02 0.02 0.02 0.04 0.04 0.03 0.02 0.01 0.02 0.02 0.02 0.02 0.02 0.03 0.02 0.03 0.03
0.00 0.00 0.00 0.00 0.00 0.00 0.00 0.00 0.00 0.00 0.00 0.00 0.00 0.00 0.00 0.00 0.01 0.01 0.01 0.01 0.01 0.01 0.01 0.01 0.01 0.01 0.01 0.02 0.02 0.02 0.05 0.07 0.07 0.05 0.04 0.04 0.02 0.02 0.02 0.02 0.03 0.04 0.02 0.02
0.00 0.00 0.00 0.00 0.00 0.00 0.00 0.00 0.00 0.00 0.00 0.00 0.00 0.00 0.00 0.01 0.02 0.01 0.01 0.01 0.01 0.02 0.02 0.02 0.01 0.01 0.02 0.02 0.03 0.03 0.05 0.12 0.12 0.10 0.08 0.07 0.04 0.03 0.03 0.04 0.05 0.04 0.03 0.02
0.00 0.00 0.00 0.00 0.00 0.00 0.00 0.00 0.00 0.00 0.00 0.00 0.00 0.01 0.00 0.03 0.03 0.01 0.01 0.02 0.03 0.03 0.02 0.02 0.02 0.03 0.03 0.04 0.07 0.08 0.10 0.13 0.14 0.11 0.09 0.07 0.06 0.05 0.05 0.05 0.05 0.04 0.03 0.02
0.00 0.00 0.00 0.00 0.00 0.00 0.00 0.00 0.00 0.00 0.00 0.00 0.00 0.01 0.01 0.03 0.03 0.02 0.02 0.03 0.03 0.04 0.04 0.03 0.03 0.04 0.05 0.05 0.07 0.09 0.10 0.11 0.13 0.13 0.10 0.08 0.07 0.06 0.06 0.06 0.05 0.04 0.03 0.02
0.00 0.00 0.00 0.00 0.00 0.01 0.00 0.00 0.00 0.00 0.00 0.00 0.00 0.00 0.01 0.02 0.02 0.03 0.03 0.03 0.03 0.04 0.04 0.03 0.04 0.04 0.04 0.05 0.06 0.08 0.09 0.12 0.15 0.16 0.14 0.08 0.06 0.06 0.07 0.06 0.05 0.04 0.04 0.03
0.00 0.00 0.00 0.00 0.00 0.00 0.00 0.00 0.00 0.00 0.00 0.00 0.00 0.00 0.01 0.01 0.02 0.03 0.04 0.04 0.04 0.05 0.05 0.06 0.06 0.05 0.04 0.04 0.04 0.06 0.08 0.12 0.16 0.15 0.14 0.10 0.08 0.07 0.09 0.07 0.05 0.04 0.04 0.04
0.00 0.00 0.00 0.00 0.00 0.00 0.00 0.00 0.00 0.01 0.01 0.01 0.00 0.01 0.01 0.01 0.02 0.02 0.03 0.03 0.04 0.06 0.07 0.08 0.07 0.05 0.05 0.05 0.05 0.05 0.07 0.09 0.13 0.14 0.12 0.10 0.09 0.07 0.06 0.06 0.05 0.05 0.04 0.04
0.00 0.00 0.00 0.00 0.00 0.00 0.00 0.00 0.00 0.01 0.01 0.01 0.00 0.01 0.01 0.01 0.01 0.01 0.02 0.03 0.03 0.03 0.02 0.03 0.05 0.04 0.03 0.03 0.03 0.05 0.07 0.10 0.10 0.10 0.09 0.09 0.08 0.06 0.05 0.05 0.06 0.07 0.05 0.04
0.00 0.00 0.00 0.01 0.01 0.01 0.00 0.00 0.01 0.00 0.00 0.01 0.01 0.01 0.01 0.01 0.01 0.01 0.01 0.03 0.03 0.01 0.01 0.01 0.02 0.02 0.03 0.03 0.03 0.04 0.05 0.07 0.09 0.08 0.06 0.06 0.06 0.05 0.04 0.03 0.03 0.04 0.04 0.04
0.00 0.00 0.00 0.01 0.01 0.01 0.01 0.00 0.01 0.00 0.00 0.00 0.01 0.01 0.01 0.01 0.01 0.02 0.02 0.02 0.02 0.01 0.01 0.01 0.02 0.02 0.03 0.03 0.03 0.03 0.05 0.07 0.08 0.07 0.04 0.04 0.04 0.04 0.04 0.04 0.03 0.04 0.05 0.06
0.00 0.00 0.00 0.01 0.01 0.01 0.01 0.01 0.00 0.00 0.00 0.00 0.00 0.01 0.01 0.01 0.01 0.01 0.01 0.01 0.00 0.00 0.00 0.02 0.03 0.03 0.03 0.03 0.03 0.03 0.04 0.05 0.05 0.04 0.03 0.02 0.02 0.04 0.06 0.05 0.04 0.04 0.05 0.06
MSLP
1012.12 1013.62 1015.00 1016.21 1017.23 1018.07 1018.78 1019.40 1019.95 1020.46 1020.91 1021.28 1021.54 1021.67 1021.64 1021.45 1021.14 1020.73 1020.26 1019.77 1019.29 1018.82 1018.38 1017.95 1017.52 1017.10 1016.70 1016.33 1016.00 1015.76 1015.60 1015.54 1015.57 1015.67 1015.80 1015.94 1016.06 1016.15 1016.21 1016.24 1016.27 1016.32 1016.40 1016.52
1013.20 1014.51 1015.68 1016.69 1017.56 1018.31 1018.99 1019.64 1020.28 1020.89 1021.44 1021.89 1022.19 1022.31 1022.24 1021.99 1021.60 1021.13 1020.63 1020.14 1019.68 1019.26 1018.86 1018.47 1018.05 1017.61 1017.15 1016.70 1016.28 1015.93 1015.68 1015.55 1015.53 1015.60 1015.71 1015.83 1015.94 1015.99 1016.01 1015.98 1015.96 1015.95 1016.00 1016.10
1014.03 1015.12 1016.07 1016.90 1017.65 1018.36 1019.07 1019.82 1020.59 1021.34 1022.01 1022.54 1022.87 1022.96 1022.82 1022.47 1021.98 1021.43 1020.88 1020.38 1019.95 1019.59 1019.25 1018.92 1018.54 1018.10 1017.61 1017.10 1016.60 1016.16 1015.83 1015.63 1015.56 1015.58 1015.67 1015.77 1015.85 1015.87 1015.83 1015.75 1015.65 1015.59 1015.58 1015.65
1014.60 1015.45 1016.20 1016.88 1017.56 1018.27 1019.08 1019.97 1020.91 1021.83 1022.63 1023.24 1023.58 1023.62 1023.38 1022.90 1022.29 1021.64 1021.03 1020.51 1020.11 1019.80 1019.55 1019.29 1018.97 1018.56 1018.07 1017.52 1016.97 1016.46 1016.06 1015.79 1015.66 1015.65 1015.70 1015.77 1015.82 1015.80 1015.71 1015.56 1015.41 1015.27 1015.21 1015.23
1014.97 1015.59 1016.16 1016.73 1017.37 1018.15 1019.08 1020.14 1021.27 1022.36 1023.29 1023.95 1024.28 1024.25 1023.89 1023.28 1022.53 1021.77 1021.08 1020.55 1020.17 1019.93 1019.76 1019.58 1019.34 1018.98 1018.51 1017.96 1017.36 1016.80 1016.34 1016.02 1015.84 1015.78 1015.80 1015.83 1015.84 1015.78 1015.65 1015.45 1015.23 1015.04 1014.90 1014.86
1015.25 1015.66 1016.07 1016.56 1017.21 1018.07 1019.14 1020.38 1021.68 1022.92 1023.94 1024.64 1024.93 1024.81 1024.33 1023.57 1022.69 1021.82 1021.07 1020.52 1020.17 1019.99 1019.90 1019.82 1019.66 1019.36 1018.93 1018.38 1017.77 1017.18 1016.67 1016.29 1016.06 1015.95 1015.93 1015.93 1015.90 1015.81 1015.63 1015.39 1015.11 1014.86 1014.66 1014.55
1015.55 1015.79 1016.07 1016.51 1017.18 1018.11 1019.31 1020.69 1022.12 1023.45 1024.53 1025.22 1025.46 1025.24 1024.63 1023.75 1022.76 1021.80 1021.01 1020.45 1020.14 1020.02 1020.01 1020.02 1019.93 1019.71 1019.31 1018.78 1018.17 1017.55 1017.00 1016.58 1016.29 1016.13 1016.06 1016.02 1015.95 1015.82 1015.61 1015.32 1015.01 1014.70 1014.45 1014.28
1015.93 1016.03 1016.23 1016.64 1017.32 1018.31 1019.58 1021.04 1022.54 1023.91 1024.98 1025.63 1025.79 1025.48 1024.78 1023.80 1022.74 1021.74 1020.94 1020.40 1020.12 1020.07 1020.13 1020.21 1020.19 1020.02 1019.66 1019.15 1018.54 1017.90 1017.32 1016.85 1016.51 1016.30 1016.17 1016.07 1015.96 1015.79 1015.54 1015.22 1014.87 1014.52 1014.23 1014.01
1016.39 1016.41 1016.57 1016.95 1017.63 1018.64 1019.93 1021.39 1022.88 1024.20 1025.21 1025.79 1025.88 1025.49 1024.72 1023.71 1022.63 1021.65 1020.87 1020.38 1020.16 1020.16 1020.28 1020.41 1020.44 1020.30 1019.97 1019.47 1018.86 1018.21 1017.60 1017.09 1016.70 1016.42 1016.23 1016.07 1015.91 1015.68 1015.40 1015.05 1014.68 1014.31 1013.98 1013.73
1016.88 1016.88 1017.02 1017.39 1018.06 1019.04 1020.28 1021.67 1023.06 1024.28 1025.19 1025.67 1025.68 1025.25 1024.47 1023.48 1022.45 1021.54 1020.84 1020.42 1020.26 1020.31 1020.47 1020.62 1020.67 1020.54 1020.23 1019.74 1019.12 1018.47 1017.83 1017.29 1016.84 1016.51 1016.25 1016.03 1015.80 1015.53 1015.20 1014.83 1014.44 1014.06 1013.72 1013.45
1017.29 1017.33 1017.50 1017.87 1018.51 1019.42 1020.56 1021.81 1023.04 1024.11 1024.87 1025.24 1025.19 1024.76 1024.03 1023.13 1022.22 1021.42 1020.84 1020.51 1020.42 1020.51 1020.68 1020.83 1020.87 1020.73 1020.41 1019.92 1019.31 1018.66 1018.01 1017.44 1016.96 1016.58 1016.26 1015.97 1015.68 1015.36 1014.99 1014.60 1014.19 1013.81 1013.47 1013.20
1017.58 1017.71 1017.93 1018.31 1018.91 1019.72 1020.71 1021.77 1022.81 1023.68 1024.28 1024.55 1024.47 1024.07 1023.44 1022.69 1021.94 1021.31 1020.87 1020.65 1020.63 1020.74 1020.90 1021.02 1021.02 1020.86 1020.52 1020.03 1019.43 1018.78 1018.15 1017.57 1017.08 1016.65 1016.28 1015.94 1015.59 1015.22 1014.83 1014.42 1014.01 1013.63 1013.31 1013.05
1017.74 1017.98 1018.27 1018.67 1019.22 1019.91 1020.72 1021.57 1022.37 1023.04 1023.49 1023.67 1023.58 1023.25 1022.75 1022.18 1021.64 1021.20 1020.92 1020.80 1020.83 1020.95 1021.08 1021.15 1021.10 1020.90 1020.54 1020.05 1019.47 1018.86 1018.25 1017.70 1017.20 1016.76 1016.36 1015.98 1015.59 1015.19 1014.77 1014.35 1013.95 1013.59 1013.29 1013.05
1017.84 1018.20 1018.56 1018.96 1019.44 1020.00 1020.61 1021.24 1021.81 1022.27 1022.56 1022.67 1022.59 1022.36 1022.02 1021.65 1021.31 1021.07 1020.94 1020.92 1021.00 1021.10 1021.19 1021.20 1021.09 1020.85 1020.48 1020.00 1019.46 1018.89 1018.34 1017.83 1017.36 1016.92 1016.52 1016.11 1015.70 1015.28 1014.85 1014.44 1014.06 1013.72 1013.45 1013.24
1017.97 1018.43 1018.84 1019.23 1019.63 1020.03 1020.45 1020.84 1021.18 1021.44 1021.60 1021.65 1021.59 1021.45 1021.28 1021.10 1020.97 1020.90 1020.91 1020.98 1021.08 1021.17 1021.21 1021.15 1020.99 1020.71 1020.34 1019.89 1019.40 1018.90 1018.42 1017.97 1017.55 1017.15 1016.76 1016.36 1015.95 1015.53 1015.11 1014.71 1014.35 1014.05 1013.81 1013.62
1018.26 1018.78 1019.20 1019.54 1019.83 1020.07 1020.27 1020.44 1020.56 1020.65 1020.68 1020.67 1020.64 1020.60 1020.56 1020.56 1020.60 1020.69 1020.82 1020.95 1021.07 1021.13 1021.12 1021.02 1020.81 1020.51 1020.15 1019.74 1019.32 1018.91 1018.51 1018.14 1017.79 1017.43 1017.07 1016.70 1016.31 1015.90 1015.51 1015.14 1014.82 1014.55 1014.34 1014.18
1018.76 1019.27 1019.65 1019.91 1020.06 1020.12 1020.12 1020.07 1019.99 1019.91 1019.83 1019.78 1019.77 1019.80 1019.89 1020.03 1020.22 1020.43 1020.64 1020.82 1020.95 1020.99 1020.94 1020.80 1020.57 1020.28 1019.94 1019.59 1019.25 1018.92 1018.62 1018.34 1018.05 1017.76 1017.45 1017.11 1016.75 1016.38 1016.02 1015.70 1015.42 1015.19 1015.01 1014.86
1019.43 1019.89 1020.18 1020.30 1020.29 1020.16 1019.96 1019.71 1019.46 1019.23 1019.07 1018.98 1018.98 1019.08 1019.26 1019.51 1019.80 1020.10 1020.38 1020.60 1020.73 1020.76 1020.70 1020.54 1020.31 1020.04 1019.75 1019.47 1019.21 1018.97 1018.76 1018.55 1018.34 1018.10 1017.84 1017.54 1017.23 1016.91 1016.60 1016.32 1016.09 1015.90 1015.75 1015.62
1020.15 1020.50 1020.65 1020.62 1020.43 1020.12 1019.73 1019.31 1018.92 1018.59 1018.35 1018.24 1018.26 1018.40 1018.66 1018.99 1019.36 1019.73 1020.05 1020.29 1020.44 1020.48 1020.41 1020.26 1020.06 1019.83 1019.60 1019.39 1019.21 1019.05 1018.92 1018.78 1018.63 1018.44 1018.22 1017.97 1017.70 1017.43 1017.18 1016.96 1016.77 1016.63 1016.50 1016.38
1020.73 1020.93 1020.92 1020.72 1020.36 1019.88 1019.35 1018.80 1018.31 1017.91 1017.64 1017.52 1017.57 1017.76 1018.08 1018.47 1018.90 1019.31 1019.67 1019.94 1020.10 1020.16 1020.12 1020.00 1019.84 1019.66 1019.50 1019.35 1019.24 1019.16 1019.08 1019.00 1018.89 1018.75 1018.58 1018.37 1018.14 1017.92 1017.72 1017.55 1017.42 1017.31 1017.22 1017.10
1020.97 1021.00 1020.83 1020.47 1019.96 1019.37 1018.73 1018.11 1017.57 1017.15 1016.89 1016.81 1016.89 1017.14 1017.50 1017.95 1018.42 1018.87 1019.26 1019.56 1019.75 1019.83 1019.83 1019.76 1019.65 1019.53 1019.43 1019.35 1019.30 1019.27 1019.24 1019.20 1019.12 1019.01 1018.87 1018.70 1018.52 1018.35 1018.20 1018.08 1017.99 1017.92 1017.85 1017.76
1020.72 1020.61 1020.29 1019.80 1019.19 1018.52 1017.84 1017.21 1016.69 1016.31 1016.10 1016.08 1016.23 1016.53 1016.95 1017.44 1017.95 1018.43 1018.84 1019.17 1019.39 1019.51 1019.55 1019.53 1019.48 1019.43 1019.38 1019.36 1019.35 1019.36 1019.36 1019.34 1019.30 1019.21 1019.10 1018.96 1018.82 1018.69 1018.59 1018.52 1018.47 1018.43 1018.39 1018.31
1019.96 1019.72 1019.29 1018.72 1018.07 1017.38 1016.73 1016.15 1015.70 1015.41 1015.29 1015.35 1015.58 1015.95 1016.42 1016.95 1017.49 1017.99 1018.43 1018.78 1019.03 1019.19 1019.28 1019.31 1019.31 1019.31 1019.31 1019.33 1019.36 1019.39 1019.42 1019.42 1019.39 1019.33 1019.25 1019.15 1019.05 1018.96 1018.89 1018.85 1018.83 1018.82 1018.79 1018.73
1018.77 1018.43 1017.93 1017.33 1016.69 1016.05 1015.48 1015.00 1014.68 1014.51 1014.52 1014.69 1015.00 1015.44 1015.95 1016.51 1017.06 1017.58 1018.02 1018.39 1018.67 1018.87 1018.99 1019.07 1019.12 1019.16 1019.20 1019.25 1019.30 1019.35 1019.39 1019.41 1019.40 1019.37 1019.32 1019.25 1019.18 1019.13 1019.09 1019.07 1019.07 1019.07 1019.05 1018.99
1017.30 1016.89 1016.37 1015.79 1015.21 1014.67 1014.22 1013.90 1013.73 1013.71 1013.84 1014.12 1014.52 1015.01 1015.56 1016.12 1016.68 1017.19 1017.64 1018.01 1018.31 1018.53 1018.68 1018.79 1018.88 1018.95 1019.01 1019.08 1019.14 1019.21 1019.26 1019.30 1019.32 1019.31 1019.30 1019.27 1019.23 1019.21 1019.19 1019.18 1019.18 1019.17 1019.14 1019.09
1015.76 1015.32 1014.82 1014.30 1013.81 1013.41 1013.11 1012.95 1012.94 1013.07 1013.33 1013.70 1014.16 1014.68 1015.24 1015.80 1016.34 1016.83 1017.26 1017.63 1017.92 1018.15 1018.33 1018.46 1018.56 1018.65 1018.73 1018.80 1018.88 1018.95 1019.02 1019.08 1019.12 1019.15 1019.17 1019.18 1019.19 1019.18 1019.18 1019.16 1019.14 1019.11 1019.06 1018.98
Thickness
5822 5807 5797 5803 5808 5808 5803 5794 5789 5798 5813 5803 5792 5791 5794 5797 5795 5792 5789 5788 5787 5788 5790 5789 5788 5786 5783 5779 5776 5774 5770 5768 5766 5763 5760 5758 5757 5757 5757 5758 5757 5757 5756 5755
5804 5798 5814 5819 5817 5810 5802 5793 5791 5800 5812 5802 5790 5788 5794 5796 5795 5795 5792 5790 5789 5787 5786 5787 5786 5784 5781 5778 5776 5773 5770 5768 5767 5764 5761 5759 5758 5757 5757 5757 5757 5757 5756 5755
5800 5810 5823 5817 5809 5803 5799 5794 5794 5794 5800 5800 5790 5780 5786 5793 5796 5795 5794 5793 5791 5789 5786 5786 5785 5783 5781 5778 5776 5774 5772 5769 5767 5765 5762 5760 5757 5756 5755 5755 5755 5755 5755 5754
5804 5816 5817 5810 5806 5804 5791 5807 5804 5797 5783 5771 5780 5756 5777 5784 5786 5790 5791 5791 5791 5791 5789 5787 5785 5782 5781 5779 5778 5775 5772 5770 5767 5764 5761 5758 5755 5752 5753 5753 5753 5754 5754 5754
5801 5812 5810 5804 5809 5809 5802 5811 5802 5793 5779 5766 5769 5756 5764 5780 5777 5784 5790 5792 5793 5792 5790 5787 5785 5784 5782 5780 5778 5774 5772 5769 5766 5764 5762 5759 5756 5754 5753 5753 5753 5752 5752 5752
5806 5818 5817 5814 5818 5815 5809 5798 5787 5773 5763 5748 5759 5753 5755 5770 5780 5787 5792 5794 5793 5792 5790 5788 5786 5784 5781 5779 5776 5773 5769 5766 5765 5763 5761 5759 5756 5753 5751 5751 5750 5750 5750 5751
5792 5804 5815 5820 5806 5805 5797 5772 5747 5743 5734 5738 5756 5752 5757 5784 5791 5792 5792 5793 5793 5792 5789 5787 5784 5781 5779 5777 5775 5772 5768 5764 5763 5761 5760 5759 5756 5754 5751 5750 5749 5749 5748 5748
5771 5773 5802 5811 5804 5793 5786 5773 5743 5730 5726 5734 5749 5747 5768 5792 5796 5796 5795 5794 5793 5791 5789 5787 5785 5783 5780 5777 5774 5771 5768 5764 5762 5759 5758 5757 5756 5753 5752 5750 5749 5748 5748 5748
5766 5771 5802 5810 5811 5801 5781 5767 5767 5741 5734 5728 5737 5751 5772 5789 5790 5790 5790 5790 5788 5788 5787 5786 5784 5782 5780 5776 5773 5770 5767 5764 5761 5759 5757 5755 5754 5752 5751 5750 5748 5747 5746 5746
5780 5770 5789 5801 5804 5798 5790 5770 5750 5735 5720 5717 5731 5741 5751 5771 5777 5782 5783 5783 5784 5784 5784 5783 5782 5780 5778 5776 5773 5769 5766 5762 5760 5757 5755 5754 5751 5750 5749 5747 5746 5745 5744 5743
5780 5766 5772 5782 5779 5775 5775 5765 5747 5730 5729 5716 5715 5737 5773 5773 5777 5776 5778 5780 5781 5781 5780 5779 5778 5777 5775 5773 5769 5766 5763 5759 5757 5754 5752 5750 5749 5748 5746 5744 5743 5742 5741 5740
5770 5756 5750 5765 5782 5786 5780 5766 5750 5737 5726 5720 5718 5737 5780 5778 5778 5777 5776 5777 5778 5778 5777 5776 5774 5772 5770 5767 5765 5763 5760 5757 5755 5752 5750 5748 5746 5743 5742 5740 5739 5738 5737 5737
5765 5748 5735 5741 5754 5767 5766 5762 5754 5740 5724 5712 5715 5739 5773 5772 5772 5773 5772 5773 5773 5772 5771 5770 5768 5767 5765 5763 5760 5759 5758 5756 5753 5750 5747 5744 5742 5740 5738 5737 5736 5735 5734 5733
5766 5742 5736 5731 5739 5751 5754 5756 5751 5740 5723 5716 5724 5739 5756 5761 5762 5766 5768 5768 5768 5766 5765 5763 5762 5761 5760 5758 5756 5755 5754 5753 5750 5747 5744 5742 5740 5738 5736 5735 5733 5732 5730 5729
5756 5738 5742 5745 5752 5752 5752 5752 5749 5744 5737 5729 5735 5736 5750 5757 5760 5762 5762 5762 5762 5760 5760 5759 5757 5756 5754 5753 5752 5751 5750 5748 5745 5742 5739 5738 5737 5735 5733 5731 5730 5728 5727 5726
5738 5733 5735 5736 5744 5745 5743 5747 5747 5745 5741 5737 5739 5739 5755 5757 5757 5756 5755 5755 5755 5755 5755 5755 5754 5752 5751 5749 5747 5746 5745 5743 5741 5737 5735 5733 5732 5730 5728 5726 5725 5724 5722 5721
5721 5722 5717 5716 5727 5733 5723 5736 5739 5738 5739 5737 5732 5741 5749 5748 5750 5751 5751 5750 5750 5751 5750 5750 5749 5748 5747 5745 5743 5740 5740 5738 5736 5734 5731 5728 5726 5725 5723 5722 5720 5718 5717 5716
5714 5707 5699 5700 5712 5702 5724 5743 5742 5736 5735 5737 5738 5742 5744 5745 5747 5749 5749 5747 5746 5745 5745 5744 5743 5742 5741 5738 5737 5736 5733 5731 5730 5728 5726 5724 5722 5719 5718 5715 5714 5712 5711 5709
5711 5704 5691 5686 5690 5700 5721 5734 5733 5727 5725 5734 5733 5737 5739 5740 5740 5739 5743 5742 5741 5740 5739 5739 5738 5736 5733 5731 5730 5729 5726 5725 5722 5721 5719 5718 5716 5714 5712 5709 5707 5706 5704 5703
5698 5697 5688 5680 5686 5685 5710 5732 5737 5728 5714 5730 5730 5729 5729 5731 5720 5726 5736 5735 5735 5734 5732 5731 5730 5727 5725 5724 5723 5721 5719 5718 5716 5715 5713 5712 5711 5708 5705 5704 5702 5700 5698 5697
5681 5677 5676 5674 5678 5689 5713 5725 5728 5704 5707 5726 5726 5724 5723 5720 5721 5725 5728 5727 5726 5725 5725 5723 5721 5719 5718 5717 5716 5713 5712 5711 5710 5709 5706 5704 5703 5701 5699 5698 5696 5694 5692 5689
5672 5668 5666 5664 5669 5682 5712 5714 5707 5707 5717 5720 5720 5719 5718 5717 5719 5719 5720 5719 5718 5717 5716 5714 5712 5711 5710 5709 5708 5706 5704 5704 5703 5701 5699 5697 5695 5694 5693 5691 5689 5687 5683 5681
5667 5670 5668 5670 5678 5693 5701 5705 5710 5710 5710 5712 5713 5714 5714 5711 5710 5711 5710 5710 5709 5709 5707 5706 5704 5703 5702 5701 5700 5698 5697 5696 5695 5694 5692 5690 5689 5687 5686 5684 5681 5678 5676 5674
5665 5666 5665 5669 5680 5689 5694 5698 5703 5705 5706 5707 5709 5708 5707 5704 5703 5702 5701 5700 5700 5699 5698 5697 5695 5694 5693 5692 5691 5690 5689 5689 5687 5686 5684 5683 5680 5679 5677 5676 5674 5671 5669 5667
5658 5660 5660 5663 5673 5680 5687 5690 5694 5698 5700 5701 5701 5701 5699 5698 5696 5694 5692 5691 5691 5690 5689 5687 5685 5684 5683 5683 5682 5682 5681 5680 5679 5678 5677 5675 5673 5672 5669 5667 5665 5664 5663 5661
5651 5653 5655 5658 5668 5669 5675 5683 5687 5688 5689 5690 5690 5690 5691 5690 5688 5686 5684 5683 5683 5681 5680 5678 5677 5676 5674 5674 5673 5674 5673 5672 5671 5670 5668 5667 5665 5664 5662 5660 5657 5655 5655 5654